[[{"header":{"parameterUnit":"m.s-1","parameterCategory":2,"la1":30.2991,"la2":30.254,"lo1":-89.0895,"lo2":-89.0444,"dy":0.0017,"dx":0.0017,"nx":28,"ny":28,"refTime":"2024-04-27T03:00:00:Z","depth":"0","parameterNumber":2,"parameterNumberName":"U-component_of_CURRENTS"},"data":[0,0,0,0,0,0,0,0,0,0,0,0,0,0,0,0,0,0,0,0,0,0,0,0,0,0,0,0,0,0,0,0,0,0,0,0,0,0,0,0,0,0,0,0,0,0,0,0,0,0,0,0,0,0,0,0,0,0,-0.2961,-0.2962,0,-0.3008,-0.3008,-0.3008,-0.2973,-0.2972,-0.2971,-0.297,-0.293,-0.293,-0.293,0,0,0,0,0,0,0,0,0,0,0,0,0,-0.2848,-0.285,-0.2961,-0.2962,-0.2963,-0.3008,-0.3008,-0.3008,-0.2974,-0.2972,-0.2971,-0.2969,-0.293,-0.293,-0.293,0,0,0,0,0,0,0,0,0,0,0,0,0,-0.2893,-0.285,-0.2961,-0.2954,-0.2954,-0.3007,-0.3008,-0.3008,-0.2974,-0.2972,-0.297,-0.2969,-0.293,-0.293,-0.293,-0.2966,0,0,-0.293,-0.293,0,0,0,0,0,0,0,0,-0.289,-0.2896,-0.2954,-0.2954,-0.2954,-0.2986,-0.2954,-0.2991,-0.2974,-0.2962,-0.297,-0.2968,-0.2944,-0.2943,-0.2952,-0.2964,-0.2963,-0.293,-0.293,-0.293,-0.293,0,0,0,0,0,0,0,-0.2887,-0.2894,-0.2976,-0.2955,-0.2955,-0.295,-0.2954,-0.2961,-0.2958,-0.2963,-0.2962,-0.2973,-0.2943,-0.2952,-0.2951,-0.2962,-0.293,-0.293,-0.293,-0.293,-0.3039,-0.3042,0,0,0,0,0,0,-0.2891,-0.2892,-0.2974,-0.2978,-0.2921,-0.2954,-0.2958,-0.2975,-0.296,-0.2958,-0.2975,-0.2972,-0.2953,-0.2951,-0.2949,-0.2998,-0.293,-0.293,-0.293,-0.3036,-0.304,-0.3043,0,0,0,0,0,0,-0.2888,-0.2898,-0.2973,-0.2938,-0.2947,-0.2958,-0.2977,-0.2977,-0.2983,-0.2971,-0.2965,-0.2981,-0.2951,-0.2949,-0.2974,-0.2995,-0.293,-0.293,-0.3033,-0.3037,-0.3041,-0.309,0,0,0,0,0,0,-0.2885,-0.2897,-0.2905,-0.2939,-0.295,-0.3012,-0.2979,-0.2979,-0.2995,-0.2991,-0.2975,-0.297,-0.295,-0.2975,-0.2974,-0.2994,-0.2931,-0.3029,-0.3035,-0.304,-0.3085,-0.3096,-0.3105,0,0,0,0,0,-0.2881,-0.2902,-0.2905,-0.2915,-0.2962,-0.3013,-0.3019,-0.3017,-0.2997,-0.3013,-0.301,-0.297,-0.3008,-0.2977,-0.2976,-0.2996,-0.3027,-0.3033,-0.3039,-0.3081,-0.3094,-0.3105,0,0,0,0,0,0,-0.2852,-0.2903,-0.2905,-0.2939,-0.2977,-0.3009,-0.3021,-0.3025,-0.3037,-0.3027,-0.3004,-0.3001,-0.3028,-0.3022,-0.2988,-0.305,-0.3012,-0.3019,-0.3044,-0.3056,-0.3066,-0.3062,-0.2931,0,0,0,0,0,-0.2854,-0.2881,-0.2931,-0.2955,-0.2977,-0.3001,-0.3018,-0.3026,-0.3045,-0.3047,-0.3041,-0.3044,-0.3059,-0.3063,-0.3071,-0.3107,-0.3086,-0.3125,-0.3135,-0.3143,-0.3144,-0.3131,-0.3138,-0.3064,-0.3064,-0.3064,0,0,-0.2847,-0.2879,-0.2891,-0.295,-0.2974,-0.3026,-0.3005,-0.3042,-0.3081,-0.3042,-0.3079,-0.3073,-0.3077,-0.3114,-0.3126,-0.3107,-0.3161,-0.3151,-0.3157,-0.3154,-0.3138,-0.3144,-0.315,-0.3068,-0.3067,-0.3067,0,0,-0.2861,-0.288,-0.2915,-0.2958,-0.3011,-0.3037,-0.3053,-0.3096,-0.3106,-0.3153,-0.3135,-0.3148,-0.3172,-0.318,-0.3187,-0.3264,-0.321,-0.3269,-0.3312,-0.33,-0.3304,-0.3308,-0.331,-0.3314,-0.3276,-0.3276,-0.3276,0,-0.2847,-0.2905,-0.2932,-0.2988,-0.3025,-0.3048,-0.3103,-0.3134,-0.3177,-0.3192,-0.3171,-0.3211,-0.3205,-0.3251,-0.3277,-0.3281,-0.3267,-0.3257,-0.3307,-0.3311,-0.3313,-0.3315,-0.3318,-0.3279,-0.3279,-0.3278,-0.3278,0,-0.2899,-0.2948,-0.2975,-0.3054,-0.3099,-0.3147,-0.3205,-0.3238,-0.3248,-0.327,-0.3306,-0.3305,-0.3321,-0.3332,-0.3325,-0.3358,-0.3341,-0.3313,-0.3264,-0.3323,-0.3322,-0.3324,-0.3284,-0.3283,-0.3282,-0.3281,0,0,-0.2851,-0.2985,-0.299,-0.3042,-0.3136,-0.3177,-0.3251,-0.3318,-0.3353,-0.3378,-0.3416,-0.3441,-0.3417,-0.3426,-0.3415,-0.3413,-0.3426,-0.3375,-0.3373,-0.3355,-0.3406,-0.3357,-0.3354,-0.3393,-0.3393,-0.3394,-0.3402,0,-0.2878,-0.2986,-0.305,-0.3147,-0.3208,-0.3266,-0.3334,-0.3394,-0.3425,-0.3468,-0.3469,-0.3493,-0.3462,-0.346,-0.3457,-0.3434,-0.3432,-0.3427,-0.3372,-0.3371,-0.3299,-0.3355,-0.3258,-0.3253,-0.3404,-0.3404,-0.3405,0,-0.29,-0.2974,-0.3074,-0.3201,-0.3231,-0.3286,-0.3376,-0.344,-0.351,-0.3533,-0.3552,-0.355,-0.3569,-0.352,-0.3504,-0.3498,-0.3458,-0.3434,-0.3433,-0.3367,-0.3325,-0.3218,-0.3251,-0.3241,-0.3407,-0.3407,-0.3407,0,-0.2843,-0.2985,-0.3059,-0.3104,-0.3252,-0.329,-0.3351,-0.3438,-0.3485,-0.3553,-0.3577,-0.3603,-0.3594,-0.3566,-0.3517,-0.3507,-0.3484,-0.3461,-0.3386,-0.3383,-0.328,-0.3266,-0.3272,-0.3438,-0.3438,-0.3438,-0.3438,0,-0.2847,-0.29,-0.3031,-0.3073,-0.314,-0.3253,-0.3315,-0.3383,-0.3476,-0.3525,-0.3579,-0.3605,-0.3596,-0.3583,-0.3542,-0.3472,-0.3497,-0.3404,-0.3381,-0.33,-0.3288,-0.3257,-0.3263,-0.3438,-0.3438,-0.3438,-0.3438,0,-0.2763,-0.2869,-0.2938,-0.3075,-0.3114,-0.3141,-0.3267,-0.3322,-0.3417,-0.348,-0.35,-0.3591,-0.3581,-0.3569,-0.3529,-0.3484,-0.3387,-0.3399,-0.3315,-0.3282,-0.3206,-0.3219,-0.3178,-0.3087,-0.3337,-0.3335,-0.3334,0,-0.273,-0.276,-0.2878,-0.2918,-0.2971,-0.3043,-0.3109,-0.3249,-0.3307,-0.3459,-0.3479,-0.3525,-0.3537,-0.3493,-0.343,-0.3369,-0.3324,-0.3238,-0.3202,-0.32,-0.3197,-0.3195,-0.312,-0.3099,-0.3096,-0.3094,-0.3092,0,-0.2637,-0.2665,-0.2733,-0.2791,-0.2858,-0.2927,-0.302,-0.3069,-0.3239,-0.3305,-0.3401,-0.3438,-0.3444,-0.3371,-0.33,-0.3228,-0.3176,-0.3188,-0.3197,-0.3027,-0.3012,-0.2913,-0.3119,-0.3071,-0.3074,-0.3075,-0.3076,-0.3077,-0.2535,-0.2534,-0.2611,-0.2654,-0.2731,-0.278,-0.2774,-0.2911,-0.298,-0.3066,-0.3222,-0.3253,-0.3302,-0.3202,-0.3152,-0.3029,-0.3027,-0.2939,-0.2962,-0.2967,-0.2853,-0.3026,-0.2943,-0.2944,-0.2945,-0.2946,-0.2947,0,-0.2405,-0.2436,-0.2474,-0.2524,-0.2527,-0.2611,-0.2695,-0.2673,-0.2698,-0.2866,-0.2925,-0.3044,-0.2998,-0.3034,-0.2974,-0.2859,-0.2768,-0.2764,-0.2741,-0.2675,-0.2835,-0.2797,-0.2664,-0.2664,-0.2664,-0.2664,-0.2664,-0.2664,-0.2349,-0.234,-0.2357,-0.2305,-0.2326,-0.226,-0.2261,-0.2271,-0.2343,-0.242,-0.2543,-0.2709,-0.2775,-0.3039,-0.2943,-0.2801,-0.2701,-0.2609,-0.2606,-0.2747,-0.2765,-0.2783,-0.275,-0.2609,-0.2609,-0.2365,-0.2364,-0.2363]},{"header":{"parameterUnit":"m.s-1","parameterCategory":2,"la1":30.2991,"la2":30.254,"lo1":-89.0895,"lo2":-89.0444,"dy":0.0017,"dx":0.0017,"nx":28,"ny":28,"refTime":"2024-04-27T03:00:00:Z","depth":"0","parameterNumber":3,"parameterNumberName":"V-component_of_CURRENTS"},"data":[0,0,0,0,0,0,0,0,0,0,0,0,0,0,0,0,0,0,0,0,0,0,0,0,0,0,0,0,0,0,0,0,0,0,0,0,0,0,0,0,0,0,0,0,0,0,0,0,0,0,0,0,0,0,0,0,0,0,-0.0121,-0.0119,0,0.0001,0.0002,0.0003,0.0083,0.0084,0.0084,0.0085,0.0256,0.026,0.0265,0,0,0,0,0,0,0,0,0,0,0,0,0,-0.0217,-0.0216,-0.0121,-0.0119,-0.0118,0.0,0.0002,0.0004,0.0083,0.0084,0.0084,0.0085,0.0255,0.026,0.0265,0,0,0,0,0,0,0,0,0,0,0,0,0,-0.0143,-0.0216,-0.0121,-0.0064,-0.0058,0.0,0.0002,0.0004,0.0083,0.0084,0.0085,0.0085,0.0254,0.026,0.0266,0.0288,0,0,0.0284,0.0287,0,0,0,0,0,0,0,0,-0.0148,-0.014,-0.0074,-0.0068,-0.0061,0.0028,0.0031,0.0102,0.0083,0.003,0.0085,0.0086,0.0184,0.0196,0.0216,0.0296,0.0304,0.0285,0.0289,0.0291,0.0293,0,0,0,0,0,0,0,-0.0153,-0.0144,-0.0072,-0.0072,-0.0064,-0.0021,-0.0011,0.0045,0.0102,0.0034,0.0041,0.0054,0.0188,0.021,0.0221,0.0306,0.0285,0.029,0.0294,0.0296,0.0459,0.0459,0,0,0,0,0,0,-0.0172,-0.015,-0.0076,-0.0069,-0.0103,-0.0021,-0.0009,-0.0001,0.0101,0.0117,0.0053,0.0057,0.0199,0.0214,0.0228,0.028,0.0291,0.0297,0.0301,0.0458,0.0459,0.046,0,0,0,0,0,0,-0.0175,-0.0167,-0.0081,-0.0106,-0.0092,-0.002,-0.0012,0.0001,0.0025,0.0114,0.0131,0.0064,0.0201,0.0219,0.0284,0.0287,0.03,0.0305,0.0457,0.0458,0.0459,0.0373,0,0,0,0,0,0,-0.0179,-0.0169,-0.0174,-0.0108,-0.0091,-0.0054,-0.0013,0.0002,0.0032,0.0038,0.0129,0.0146,0.0203,0.0274,0.029,0.0295,0.031,0.0457,0.0458,0.0459,0.0375,0.0371,0.0367,0,0,0,0,0,-0.0183,-0.0195,-0.0176,-0.0167,-0.01,-0.0055,-0.0043,0.0011,0.0031,0.0037,0.0106,0.0143,0.0293,0.028,0.0298,0.0305,0.0456,0.0457,0.0459,0.0377,0.0371,0.0367,0,0,0,0,0,0,-0.024,-0.0186,-0.0164,-0.0159,-0.0114,-0.0042,-0.0035,0.0004,0.0061,0.0067,0.0151,0.0172,0.0228,0.0281,0.0264,0.0358,0.0381,0.0386,0.0312,0.0308,0.0304,0.0277,0.0315,0,0,0,0,0,-0.0257,-0.0253,-0.019,-0.0189,-0.017,-0.0105,-0.0081,-0.0044,0.0016,0.0042,0.0108,0.0182,0.0247,0.0288,0.0348,0.0399,0.0451,0.0418,0.0414,0.041,0.0402,0.0486,0.0489,0.0464,0.0464,0.0464,0,0,-0.0279,-0.025,-0.0247,-0.0201,-0.0163,-0.0144,-0.0089,-0.0061,-0.0037,0.0052,0.0099,0.0164,0.0256,0.0313,0.0344,0.036,0.0444,0.0412,0.0408,0.0402,0.0488,0.049,0.0492,0.0465,0.0465,0.0465,0,0,-0.0326,-0.0297,-0.031,-0.0277,-0.0228,-0.0181,-0.0178,-0.0108,-0.007,-0.0016,0.0055,0.0125,0.0219,0.0292,0.034,0.0354,0.0414,0.037,0.0337,0.0418,0.042,0.0423,0.0481,0.049,0.0376,0.0376,0.0376,0,-0.0357,-0.036,-0.0306,-0.0306,-0.0285,-0.0205,-0.0207,-0.0154,-0.0071,-0.0035,-0.0014,0.014,0.0212,0.0302,0.0304,0.0345,0.0388,0.0342,0.041,0.0414,0.0418,0.0478,0.0489,0.0372,0.0372,0.0373,0.0373,0,-0.0407,-0.0407,-0.0412,-0.0383,-0.0352,-0.0343,-0.0264,-0.0224,-0.017,-0.0107,-0.0018,0.0086,0.0182,0.0215,0.0263,0.0332,0.0351,0.0386,0.0413,0.0415,0.0479,0.0491,0.0366,0.0367,0.0369,0.037,0,0,-0.0482,-0.0456,-0.0458,-0.0461,-0.0394,-0.0378,-0.0331,-0.0262,-0.0228,-0.0135,-0.008,0.0039,0.01,0.0158,0.0237,0.0307,0.0371,0.0345,0.0351,0.0386,0.0531,0.0584,0.0603,0.0412,0.0414,0.0415,0.0559,0,-0.0539,-0.0578,-0.053,-0.0545,-0.0555,-0.0463,-0.0426,-0.0349,-0.0265,-0.0189,-0.006,0.0018,0.0081,0.0122,0.0205,0.0336,0.0401,0.0328,0.0539,0.0545,0.0579,0.0619,0.0683,0.0821,0.0572,0.0574,0.0575,0,-0.0603,-0.062,-0.0661,-0.0634,-0.0627,-0.0612,-0.0537,-0.0493,-0.0352,-0.0284,-0.0171,-0.0066,0.0068,0.0107,0.033,0.0277,0.0385,0.048,0.0489,0.0577,0.0622,0.0784,0.0853,0.1069,0.0595,0.0594,0.0592,0,-0.07,-0.0706,-0.075,-0.0742,-0.0694,-0.0681,-0.0645,-0.0529,-0.0488,-0.0345,-0.0292,-0.0113,-0.0023,0.0146,0.0356,0.0341,0.0591,0.0607,0.0756,0.076,0.0877,0.0889,0.1169,0.0744,0.0744,0.0743,0.0743,0,-0.0782,-0.081,-0.0804,-0.0824,-0.086,-0.0784,-0.0773,-0.0704,-0.0593,-0.0541,-0.0358,-0.0265,-0.0014,0.0172,0.0347,0.0604,0.0598,0.0758,0.0811,0.0849,0.0856,0.1099,0.1167,0.0749,0.0748,0.0746,0.0746,0,-0.0874,-0.0873,-0.0917,-0.0904,-0.091,-0.0934,-0.0884,-0.0864,-0.0743,-0.0667,-0.0627,-0.0376,-0.0117,0.0143,0.0436,0.0595,0.0967,0.091,0.0927,0.0979,0.1305,0.1364,0.1661,0.1769,0.11,0.1102,0.1104,0,-0.0924,-0.0959,-0.1001,-0.1045,-0.1043,-0.1061,-0.1067,-0.0965,-0.0926,-0.0723,-0.069,-0.0424,-0.02,0.0269,0.0611,0.0954,0.1085,0.1172,0.1162,0.1349,0.1455,0.1488,0.1558,0.1282,0.1286,0.1288,0.129,0,-0.1004,-0.1019,-0.1065,-0.1168,-0.1207,-0.1229,-0.1219,-0.1212,-0.1067,-0.0961,-0.0756,-0.0558,-0.0062,0.0407,0.085,0.1041,0.134,0.1235,0.1453,0.1642,0.1678,0.1797,0.1139,0.1314,0.1312,0.131,0.1309,0.1308,-0.1058,-0.1125,-0.1198,-0.1288,-0.1342,-0.1374,-0.1385,-0.133,-0.1257,-0.1062,-0.0828,-0.0476,0.0231,0.0904,0.1145,0.1653,0.1559,0.1779,0.1839,0.1858,0.1963,0.1337,0.1555,0.1554,0.1554,0.1553,0.1552,0,-0.1128,-0.1209,-0.1311,-0.1411,-0.1481,-0.1473,-0.1468,-0.1434,-0.1349,-0.1085,-0.0828,-0.0027,0.0655,0.1265,0.2024,0.2271,0.2303,0.2359,0.2446,0.249,0.1982,0.1993,0.229,0.229,0.2289,0.2289,0.2289,0.2289,-0.1171,-0.1296,-0.1359,-0.1511,-0.1569,-0.162,-0.1612,-0.1528,-0.1337,-0.0888,-0.0434,-0.0023,0.088,0.215,0.2834,0.2858,0.3061,0.3007,0.3104,0.2781,0.2732,0.2685,0.2716,0.316,0.3161,0.3608,0.3612,0.3616]}],[{"header":{"parameterUnit":"m.s-1","parameterCategory":2,"la1":30.2991,"la2":30.254,"lo1":-89.0895,"lo2":-89.0444,"dy":0.0017,"dx":0.0017,"nx":28,"ny":28,"refTime":"2024-04-27T03:00:00:Z","depth":"2","parameterNumber":2,"parameterNumberName":"U-component_of_CURRENTS"},"data":[0,0,0,0,0,0,0,0,0,0,0,0,0,0,0,0,0,0,0,0,0,0,0,0,0,0,0,0,0,0,0,0,0,0,0,0,0,0,0,0,0,0,0,0,0,0,0,0,0,0,0,0,0,0,0,0,0,0,-0.2849,-0.285,0,-0.2892,-0.2892,-0.2892,-0.2861,-0.286,-0.2859,-0.2858,-0.2818,-0.2818,-0.2818,0,0,0,0,0,0,0,0,0,0,0,0,0,-0.2742,-0.2744,-0.2849,-0.285,-0.2851,-0.2892,-0.2892,-0.2892,-0.2862,-0.286,-0.2859,-0.2858,-0.2818,-0.2818,-0.2818,0,0,0,0,0,0,0,0,0,0,0,0,0,-0.2784,-0.2745,-0.2849,-0.2843,-0.2843,-0.2892,-0.2892,-0.2892,-0.2862,-0.286,-0.2859,-0.2857,-0.2818,-0.2818,-0.2818,-0.2849,0,0,-0.2817,-0.2817,0,0,0,0,0,0,0,0,-0.2782,-0.2787,-0.2843,-0.2844,-0.2844,-0.2873,-0.284,-0.2875,-0.2862,-0.2851,-0.2858,-0.2856,-0.2832,-0.2831,-0.2839,-0.2847,-0.2845,-0.2817,-0.2817,-0.2817,-0.2817,0,0,0,0,0,0,0,-0.2779,-0.2785,-0.2863,-0.2844,-0.2845,-0.2839,-0.2843,-0.2846,-0.2846,-0.2852,-0.2851,-0.2862,-0.2831,-0.2839,-0.2837,-0.2844,-0.2817,-0.2817,-0.2817,-0.2817,-0.2916,-0.2919,0,0,0,0,0,0,-0.2783,-0.2783,-0.2861,-0.2864,-0.2812,-0.2842,-0.2846,-0.2862,-0.2847,-0.2845,-0.2863,-0.286,-0.284,-0.2837,-0.2836,-0.2883,-0.2817,-0.2817,-0.2817,-0.2913,-0.2917,-0.292,0,0,0,0,0,0,-0.278,-0.2789,-0.286,-0.2827,-0.2836,-0.2846,-0.2864,-0.2864,-0.2872,-0.2857,-0.2852,-0.2871,-0.2838,-0.2836,-0.2859,-0.288,-0.2817,-0.2817,-0.291,-0.2914,-0.2918,-0.2969,0,0,0,0,0,0,-0.2777,-0.2788,-0.2797,-0.2827,-0.2838,-0.2896,-0.2866,-0.2866,-0.2883,-0.2879,-0.2863,-0.2858,-0.2837,-0.2859,-0.2859,-0.2879,-0.2817,-0.2907,-0.2912,-0.2917,-0.2964,-0.2974,-0.2983,0,0,0,0,0,-0.2773,-0.2794,-0.2797,-0.2806,-0.2851,-0.2898,-0.2903,-0.2902,-0.2885,-0.29,-0.2897,-0.2858,-0.2891,-0.2862,-0.286,-0.288,-0.2904,-0.291,-0.2916,-0.296,-0.2972,-0.2983,0,0,0,0,0,0,-0.2747,-0.2795,-0.2798,-0.283,-0.2865,-0.2894,-0.2906,-0.2911,-0.2922,-0.2913,-0.289,-0.2886,-0.2912,-0.2905,-0.2873,-0.293,-0.2893,-0.2899,-0.2926,-0.2938,-0.2948,-0.2944,-0.2817,0,0,0,0,0,-0.275,-0.2775,-0.2821,-0.2845,-0.2865,-0.2888,-0.2904,-0.2912,-0.293,-0.2932,-0.2925,-0.2928,-0.294,-0.2944,-0.295,-0.2983,-0.2962,-0.3,-0.301,-0.3018,-0.3019,-0.3007,-0.3014,-0.294,-0.2939,-0.2939,0,0,-0.2743,-0.2774,-0.2785,-0.2841,-0.2862,-0.2911,-0.2893,-0.2928,-0.2964,-0.2927,-0.2962,-0.2956,-0.2958,-0.2991,-0.3003,-0.2984,-0.3036,-0.3026,-0.3032,-0.3028,-0.3014,-0.302,-0.3026,-0.2944,-0.2943,-0.2942,0,0,-0.2757,-0.2776,-0.2809,-0.2849,-0.2899,-0.2923,-0.2939,-0.298,-0.299,-0.3034,-0.3016,-0.303,-0.305,-0.3056,-0.3061,-0.3135,-0.3084,-0.314,-0.3184,-0.3172,-0.3177,-0.3181,-0.3182,-0.3185,-0.3148,-0.3148,-0.3148,0,-0.2744,-0.2798,-0.2824,-0.2877,-0.2911,-0.2934,-0.2985,-0.3014,-0.3056,-0.307,-0.3052,-0.3089,-0.3082,-0.3124,-0.315,-0.3152,-0.3139,-0.3131,-0.318,-0.3183,-0.3186,-0.3186,-0.3189,-0.3151,-0.315,-0.315,-0.315,0,-0.2792,-0.2839,-0.2864,-0.2937,-0.2979,-0.3025,-0.308,-0.3113,-0.3124,-0.3145,-0.318,-0.3179,-0.3194,-0.3204,-0.3197,-0.3229,-0.3213,-0.3185,-0.3138,-0.3196,-0.3194,-0.3196,-0.3155,-0.3154,-0.3153,-0.3153,0,0,-0.2747,-0.2873,-0.2878,-0.2925,-0.3015,-0.3053,-0.3123,-0.3187,-0.3221,-0.3247,-0.3284,-0.3307,-0.3286,-0.3294,-0.3284,-0.3283,-0.3298,-0.3248,-0.3245,-0.3228,-0.3279,-0.3231,-0.3228,-0.3268,-0.3268,-0.3268,-0.3274,0,-0.2771,-0.2872,-0.2932,-0.3022,-0.3079,-0.3135,-0.32,-0.3257,-0.3288,-0.3331,-0.3333,-0.3357,-0.3329,-0.3329,-0.3327,-0.3305,-0.3303,-0.3299,-0.3245,-0.3244,-0.3174,-0.3229,-0.2959,-0.2938,-0.3276,-0.3276,-0.3277,0,-0.2791,-0.2859,-0.2952,-0.3071,-0.3099,-0.3152,-0.3239,-0.33,-0.3368,-0.3392,-0.3413,-0.3413,-0.3433,-0.3388,-0.3373,-0.3368,-0.333,-0.3307,-0.3306,-0.3239,-0.3198,-0.2935,-0.2928,-0.3279,-0.3279,-0.3279,-0.3279,0,-0.2735,-0.2867,-0.2936,-0.2979,-0.3118,-0.3156,-0.3214,-0.3298,-0.3344,-0.3414,-0.3438,-0.3466,-0.346,-0.3434,-0.3388,-0.3379,-0.3357,-0.3334,-0.3259,-0.3256,-0.3006,-0.298,-0.3311,-0.3311,-0.3311,-0.3311,-0.3311,0,-0.2737,-0.2786,-0.2911,-0.295,-0.3012,-0.3121,-0.3181,-0.3247,-0.3339,-0.3387,-0.3442,-0.3468,-0.3463,-0.3453,-0.3413,-0.3345,-0.3371,-0.3276,-0.3253,-0.3022,-0.2999,-0.3272,-0.3267,-0.3311,-0.3311,-0.3311,-0.3311,0,-0.2655,-0.2756,-0.282,-0.295,-0.2988,-0.3014,-0.3136,-0.3189,-0.3284,-0.3346,-0.3367,-0.3457,-0.345,-0.344,-0.3402,-0.3358,-0.3312,-0.3273,-0.3017,-0.2965,-0.3219,-0.3217,-0.321,-0.3209,-0.3207,-0.3206,-0.3205,0,-0.2623,-0.265,-0.2762,-0.28,-0.2852,-0.2921,-0.2984,-0.3121,-0.3176,-0.3326,-0.3345,-0.3393,-0.34,-0.3358,-0.3267,-0.3198,-0.3263,-0.2932,-0.2871,-0.3229,-0.3208,-0.3209,-0.321,-0.2564,-0.2558,-0.2553,-0.2549,0,-0.2531,-0.2558,-0.2622,-0.2677,-0.2742,-0.2805,-0.2895,-0.2942,-0.3108,-0.3169,-0.3261,-0.3293,-0.3272,-0.3095,-0.3013,-0.2926,-0.2931,-0.2831,-0.3238,-0.265,-0.2624,-0.2603,-0.2623,-0.2504,-0.2509,-0.2512,-0.2514,-0.2516,-0.2433,-0.2431,-0.2503,-0.2543,-0.2617,-0.2661,-0.2653,-0.2767,-0.2827,-0.286,-0.3039,-0.2977,-0.2982,-0.2719,-0.2615,-0.2507,-0.2693,-0.2562,-0.2574,-0.2593,-0.2535,-0.251,-0.2358,-0.2362,-0.2365,-0.2368,-0.237,0,-0.2298,-0.2333,-0.2369,-0.2414,-0.2407,-0.2498,-0.2574,-0.2511,-0.2504,-0.2575,-0.2594,-0.2359,-0.2283,-0.2286,-0.2071,-0.207,-0.2006,-0.1977,-0.1884,-0.1929,-0.1969,-0.1878,-0.1528,-0.1526,-0.1524,-0.1522,0,0,-0.2241,-0.2225,-0.2239,-0.2181,-0.2209,-0.2119,-0.2116,-0.2047,-0.2028,-0.1917,-0.1879,-0.2065,-0.2188,-0.184,-0.1782,-0.1626,-0.1743,-0.1534,-0.22,-0.213,-0.2167,-0.2293,-0.2202,0,0,0,0,0]},{"header":{"parameterUnit":"m.s-1","parameterCategory":2,"la1":30.2991,"la2":30.254,"lo1":-89.0895,"lo2":-89.0444,"dy":0.0017,"dx":0.0017,"nx":28,"ny":28,"refTime":"2024-04-27T03:00:00:Z","depth":"2","parameterNumber":3,"parameterNumberName":"V-component_of_CURRENTS"},"data":[0,0,0,0,0,0,0,0,0,0,0,0,0,0,0,0,0,0,0,0,0,0,0,0,0,0,0,0,0,0,0,0,0,0,0,0,0,0,0,0,0,0,0,0,0,0,0,0,0,0,0,0,0,0,0,0,0,0,-0.0144,-0.0143,0,-0.0026,-0.0025,-0.0023,0.0056,0.0056,0.0057,0.0057,0.0224,0.0228,0.0232,0,0,0,0,0,0,0,0,0,0,0,0,0,-0.0241,-0.024,-0.0144,-0.0143,-0.0141,-0.0026,-0.0025,-0.0023,0.0055,0.0056,0.0057,0.0057,0.0223,0.0228,0.0232,0,0,0,0,0,0,0,0,0,0,0,0,0,-0.0169,-0.024,-0.0145,-0.0088,-0.0082,-0.0027,-0.0025,-0.0023,0.0055,0.0056,0.0057,0.0058,0.0222,0.0227,0.0233,0.0254,0,0,0.0251,0.0254,0,0,0,0,0,0,0,0,-0.0173,-0.0165,-0.0098,-0.0092,-0.0085,0.0001,0.0003,0.0072,0.0055,0.0003,0.0057,0.0058,0.0153,0.0165,0.0185,0.0262,0.0269,0.0252,0.0255,0.0258,0.026,0,0,0,0,0,0,0,-0.0178,-0.0169,-0.0097,-0.0097,-0.0089,-0.0048,-0.0038,0.0016,0.0073,0.0008,0.0014,0.0027,0.0158,0.0179,0.019,0.0271,0.0252,0.0257,0.0261,0.0263,0.0414,0.0415,0,0,0,0,0,0,-0.0197,-0.0175,-0.0101,-0.0094,-0.0128,-0.0047,-0.0035,-0.0028,0.0072,0.0087,0.0026,0.003,0.0168,0.0183,0.0196,0.0245,0.0258,0.0263,0.0267,0.0414,0.0414,0.0415,0,0,0,0,0,0,-0.0199,-0.0192,-0.0106,-0.0131,-0.0117,-0.0047,-0.0038,-0.0026,-0.0002,0.0085,0.0102,0.0037,0.017,0.0187,0.0249,0.0251,0.0266,0.0272,0.0413,0.0414,0.0415,0.0331,0,0,0,0,0,0,-0.0203,-0.0194,-0.0198,-0.0133,-0.0117,-0.0081,-0.0039,-0.0024,0.0005,0.0011,0.01,0.0116,0.0172,0.024,0.0255,0.0259,0.0276,0.0413,0.0414,0.0414,0.0333,0.0328,0.0325,0,0,0,0,0,-0.0207,-0.0219,-0.0199,-0.019,-0.0124,-0.0081,-0.007,-0.0016,0.0004,0.0009,0.0076,0.0114,0.0257,0.0245,0.0263,0.0269,0.0412,0.0413,0.0414,0.0335,0.0329,0.0325,0,0,0,0,0,0,-0.0263,-0.021,-0.0187,-0.0182,-0.0138,-0.0068,-0.0061,-0.0024,0.0031,0.0038,0.012,0.0141,0.0193,0.0245,0.023,0.0317,0.0341,0.0345,0.0274,0.027,0.0266,0.024,0.0281,0,0,0,0,0,-0.0279,-0.0275,-0.0213,-0.0211,-0.0194,-0.013,-0.0107,-0.0071,-0.0012,0.0013,0.0077,0.0148,0.021,0.0249,0.0307,0.0355,0.0406,0.0372,0.0368,0.0364,0.0356,0.0439,0.0441,0.0418,0.0418,0.0418,0,0,-0.0301,-0.0272,-0.0269,-0.0224,-0.0187,-0.0169,-0.0114,-0.0088,-0.0066,0.0022,0.0067,0.013,0.0218,0.0271,0.03,0.0317,0.0397,0.0365,0.0361,0.0356,0.044,0.0443,0.0445,0.0419,0.0419,0.0419,0,0,-0.0347,-0.0318,-0.033,-0.0299,-0.0251,-0.0207,-0.0203,-0.0136,-0.0099,-0.0048,0.0021,0.0089,0.0178,0.0249,0.0295,0.0305,0.0365,0.032,0.0286,0.0367,0.0369,0.0371,0.0429,0.0438,0.0325,0.0325,0.0325,0,-0.0378,-0.0381,-0.0327,-0.0328,-0.0309,-0.023,-0.0234,-0.0183,-0.0102,-0.0068,-0.0046,0.0101,0.0171,0.0255,0.0257,0.0295,0.0339,0.0294,0.0359,0.0363,0.0367,0.0426,0.0436,0.0321,0.0322,0.0322,0.0322,0,-0.0428,-0.0427,-0.0433,-0.0406,-0.0377,-0.0369,-0.0293,-0.0255,-0.0202,-0.0141,-0.0057,0.0044,0.0137,0.0169,0.0215,0.0282,0.0301,0.0335,0.0364,0.0364,0.0427,0.0439,0.0315,0.0317,0.0318,0.0319,0,0,-0.0501,-0.0476,-0.0479,-0.0483,-0.0419,-0.0404,-0.0361,-0.0295,-0.0262,-0.0173,-0.012,-0.0006,0.0055,0.0111,0.0188,0.0256,0.032,0.0295,0.0301,0.0337,0.0478,0.0527,0.0545,0.0361,0.0363,0.0364,0.0506,0,-0.0558,-0.0598,-0.0551,-0.0569,-0.058,-0.0491,-0.0457,-0.0383,-0.0302,-0.0228,-0.0103,-0.0028,0.0035,0.0076,0.0156,0.0285,0.035,0.0277,0.0486,0.0491,0.0524,0.0561,0.0471,0.0593,0.0518,0.052,0.0522,0,-0.0622,-0.0639,-0.0683,-0.0658,-0.0651,-0.0638,-0.0568,-0.0526,-0.039,-0.0324,-0.0212,-0.011,0.0021,0.006,0.028,0.0227,0.0335,0.0428,0.0437,0.052,0.0564,0.0586,0.0619,0.0543,0.0541,0.054,0.0538,0,-0.0717,-0.0726,-0.077,-0.0763,-0.0719,-0.0708,-0.0674,-0.0562,-0.0523,-0.0384,-0.0331,-0.0157,-0.0067,0.0099,0.0306,0.0291,0.0537,0.0553,0.0696,0.07,0.0685,0.0685,0.0688,0.0688,0.0687,0.0687,0.0686,0,-0.0799,-0.0828,-0.0823,-0.0844,-0.0881,-0.0808,-0.08,-0.0733,-0.0625,-0.0576,-0.0396,-0.0306,-0.0058,0.0124,0.0297,0.0548,0.0545,0.0697,0.075,0.0654,0.065,0.0655,0.0649,0.0692,0.0691,0.069,0.0689,0,-0.0889,-0.0889,-0.0935,-0.0924,-0.093,-0.0955,-0.0908,-0.089,-0.0772,-0.0699,-0.066,-0.0414,-0.016,0.0096,0.0384,0.0539,0.0768,0.0847,0.0711,0.0745,0.0872,0.086,0.1023,0.1027,0.1029,0.1031,0.1033,0,-0.0939,-0.0974,-0.1017,-0.1061,-0.106,-0.1079,-0.1086,-0.0987,-0.0951,-0.0755,-0.0723,-0.0462,-0.0247,0.0213,0.0519,0.0846,0.0846,0.0941,0.0909,0.0877,0.0911,0.0895,0.088,0.0848,0.0848,0.0848,0.0848,0,-0.1019,-0.1033,-0.108,-0.1182,-0.1221,-0.1244,-0.1236,-0.123,-0.1091,-0.099,-0.0792,-0.0603,-0.0145,0.0224,0.0646,0.0814,0.0888,0.0957,0.0982,0.078,0.0724,0.0753,0.0742,0.085,0.085,0.0849,0.0849,0.0849,-0.1072,-0.1138,-0.1212,-0.1301,-0.1354,-0.1388,-0.14,-0.1348,-0.128,-0.1104,-0.0886,-0.0581,-0.019,0.0403,0.0709,0.0963,0.0972,0.1012,0.1006,0.1001,0.0959,0.0912,0.1063,0.1064,0.1065,0.1065,0.1066,0,-0.1141,-0.1222,-0.1323,-0.1422,-0.1491,-0.1485,-0.1483,-0.1449,-0.1369,-0.1161,-0.0933,-0.0511,-0.0068,0.0325,0.0742,0.1021,0.0968,0.1036,0.0913,0.091,0.0908,0.0856,0.0936,0.0937,0.0937,0.0938,0,0,-0.1183,-0.1306,-0.1368,-0.1517,-0.1578,-0.1626,-0.162,-0.154,-0.1388,-0.1181,-0.0953,-0.0591,-0.0079,0.0196,0.0541,0.0751,0.0746,0.0745,0.0815,0.0623,0.0617,0.0856,0.0769,0,0,0,0,0]}],[{"header":{"parameterUnit":"m.s-1","parameterCategory":2,"la1":30.2991,"la2":30.254,"lo1":-89.0895,"lo2":-89.0444,"dy":0.0017,"dx":0.0017,"nx":28,"ny":28,"refTime":"2024-04-27T03:00:00:Z","depth":"4","parameterNumber":2,"parameterNumberName":"U-component_of_CURRENTS"},"data":[0,0,0,0,0,0,0,0,0,0,0,0,0,0,0,0,0,0,0,0,0,0,0,0,0,0,0,0,0,0,0,0,0,0,0,0,0,0,0,0,0,0,0,0,0,0,0,0,0,0,0,0,0,0,0,0,0,0,-0.1873,-0.1874,0,-0.1942,-0.1943,-0.1944,-0.1982,-0.1983,-0.1983,-0.1983,-0.2009,-0.201,-0.201,0,0,0,0,0,0,0,0,0,0,0,0,0,-0.1759,-0.1761,-0.1873,-0.1874,-0.1875,-0.1942,-0.1943,-0.1944,-0.1982,-0.1983,-0.1983,-0.1983,-0.2009,-0.2009,-0.201,0,0,0,0,0,0,0,0,0,0,0,0,0,-0.1815,-0.1761,-0.1873,-0.1904,-0.1908,-0.1942,-0.1943,-0.1944,-0.1982,-0.1983,-0.1983,-0.1983,-0.2009,-0.2009,-0.201,-0.2005,0,0,-0.2012,-0.2012,0,0,0,0,0,0,0,0,-0.1811,-0.1818,-0.1898,-0.1902,-0.1906,-0.1956,-0.1912,-0.1963,-0.1982,-0.1952,-0.1983,-0.1984,-0.1988,-0.1991,-0.2001,-0.2006,-0.2008,-0.2012,-0.2012,-0.2013,-0.2013,0,0,0,0,0,0,0,-0.1807,-0.1816,-0.1899,-0.1899,-0.1904,-0.1909,-0.1917,-0.1922,-0.1964,-0.1955,-0.1958,-0.1968,-0.199,-0.2,-0.2001,-0.2008,-0.2012,-0.2013,-0.2013,-0.2013,-0.2119,-0.2122,0,0,0,0,0,0,-0.1803,-0.1812,-0.1897,-0.1901,-0.1861,-0.1911,-0.192,-0.1938,-0.1966,-0.1971,-0.1968,-0.197,-0.1999,-0.2001,-0.2002,-0.2087,-0.2013,-0.2013,-0.2014,-0.2117,-0.212,-0.2123,0,0,0,0,0,0,-0.1801,-0.181,-0.1894,-0.1859,-0.187,-0.1913,-0.1932,-0.1939,-0.1983,-0.1977,-0.1981,-0.2009,-0.1999,-0.2001,-0.2048,-0.2085,-0.2014,-0.2014,-0.2114,-0.2118,-0.2121,-0.22,0,0,0,0,0,0,-0.1797,-0.1809,-0.1835,-0.1859,-0.1872,-0.1938,-0.1932,-0.194,-0.1987,-0.1992,-0.2012,-0.2013,-0.2,-0.2047,-0.2048,-0.2085,-0.2015,-0.2111,-0.2116,-0.212,-0.2194,-0.2206,-0.2216,0,0,0,0,0,-0.1793,-0.1822,-0.1836,-0.1847,-0.1902,-0.1939,-0.1947,-0.1976,-0.1989,-0.2016,-0.2039,-0.2014,-0.2077,-0.205,-0.205,-0.2088,-0.2109,-0.2114,-0.212,-0.2189,-0.2203,-0.2215,0,0,0,0,0,0,-0.1787,-0.183,-0.1846,-0.1888,-0.1923,-0.1947,-0.1978,-0.1998,-0.2038,-0.2051,-0.2043,-0.2047,-0.2098,-0.2089,-0.2059,-0.2135,-0.209,-0.2096,-0.2142,-0.2155,-0.2166,-0.2161,-0.2015,0,0,0,0,0,-0.1797,-0.1832,-0.1869,-0.1905,-0.1927,-0.196,-0.1985,-0.2008,-0.2039,-0.2059,-0.2076,-0.2097,-0.2116,-0.2134,-0.2145,-0.2188,-0.2165,-0.2215,-0.2226,-0.2235,-0.2234,-0.2235,-0.2245,-0.2141,-0.2141,-0.214,0,0,-0.1805,-0.1833,-0.1854,-0.1907,-0.1936,-0.1978,-0.1977,-0.2028,-0.2071,-0.2053,-0.2125,-0.2134,-0.2136,-0.2184,-0.2207,-0.2185,-0.2258,-0.2242,-0.2249,-0.2244,-0.2242,-0.2251,-0.226,-0.2144,-0.2144,-0.2143,0,0,-0.1824,-0.1865,-0.1898,-0.1935,-0.199,-0.2013,-0.2037,-0.2087,-0.2122,-0.2184,-0.2183,-0.222,-0.2258,-0.2266,-0.2272,-0.2351,-0.2311,-0.2364,-0.2417,-0.2419,-0.2426,-0.2433,-0.2431,-0.2436,-0.2373,-0.2373,-0.2373,0,-0.1833,-0.188,-0.1914,-0.1957,-0.1994,-0.2034,-0.208,-0.2122,-0.2184,-0.2215,-0.2221,-0.2288,-0.2292,-0.2338,-0.2372,-0.2373,-0.2366,-0.2364,-0.243,-0.2436,-0.2441,-0.2437,-0.2442,-0.2378,-0.2377,-0.2377,-0.2376,0,-0.1867,-0.1922,-0.1947,-0.2014,-0.2059,-0.2107,-0.2165,-0.2221,-0.2268,-0.2301,-0.2371,-0.2385,-0.2419,-0.2436,-0.243,-0.248,-0.2462,-0.2437,-0.239,-0.2456,-0.2448,-0.2452,-0.2384,-0.2383,-0.2381,-0.238,0,0,-0.1836,-0.1949,-0.196,-0.2006,-0.2096,-0.2131,-0.2216,-0.2289,-0.2343,-0.2405,-0.2467,-0.2512,-0.252,-0.2529,-0.2529,-0.2541,-0.2581,-0.2518,-0.2516,-0.2503,-0.2589,-0.2431,-0.2419,-0.2569,-0.257,-0.257,-0.2572,0,-0.1852,-0.1935,-0.1994,-0.2083,-0.213,-0.2205,-0.2278,-0.2353,-0.2414,-0.2485,-0.2515,-0.2569,-0.2556,-0.2581,-0.2594,-0.2585,-0.2594,-0.2583,-0.2537,-0.2536,-0.2376,-0.2419,-0.2574,-0.2574,-0.2575,-0.2576,-0.2576,0,-0.1853,-0.1914,-0.2001,-0.2122,-0.2151,-0.2216,-0.233,-0.24,-0.2501,-0.2552,-0.2608,-0.2631,-0.2678,-0.265,-0.2662,-0.2659,-0.2634,-0.2617,-0.2616,-0.2438,-0.2384,-0.2493,-0.2582,-0.2582,-0.2581,-0.2581,-0.2581,0,-0.1787,-0.1914,-0.1985,-0.2027,-0.2168,-0.2231,-0.2306,-0.2417,-0.2478,-0.259,-0.2635,-0.2693,-0.272,-0.2712,-0.269,-0.2684,-0.2683,-0.2661,-0.2494,-0.2483,-0.2589,-0.2581,-0.2655,-0.2655,-0.2655,-0.2655,-0.2655,0,-0.1758,-0.1818,-0.1967,-0.2005,-0.2091,-0.2207,-0.2301,-0.2386,-0.2505,-0.2561,-0.2657,-0.2687,-0.2736,-0.2741,-0.2714,-0.2609,-0.2697,-0.2501,-0.2469,-0.2626,-0.2622,-0.2592,-0.2584,-0.2655,-0.2655,-0.2655,-0.2655,0,-0.1659,-0.1769,-0.185,-0.2009,-0.2061,-0.2116,-0.2277,-0.2339,-0.247,-0.2543,-0.2581,-0.2691,-0.2689,-0.2708,-0.2695,-0.2609,-0.2547,-0.2486,-0.2663,-0.2641,-0.2345,-0.2342,-0.2298,-0.2292,-0.2287,-0.2283,-0.228,0,-0.1611,-0.1646,-0.1809,-0.1863,-0.1939,-0.2048,-0.2123,-0.229,-0.2342,-0.2512,-0.252,-0.2591,-0.2632,-0.249,-0.2533,-0.2465,-0.2427,-0.2392,-0.2357,-0.2333,-0.2307,-0.2312,-0.2316,-0.2272,-0.2271,-0.227,-0.2268,0,-0.1503,-0.1574,-0.1646,-0.1739,-0.1833,-0.1914,-0.2027,-0.2055,-0.2233,-0.2377,-0.2391,-0.2396,-0.239,-0.2373,-0.2334,-0.2286,-0.2418,-0.2342,-0.2351,-0.2318,-0.2301,-0.2282,-0.2291,-0.2252,-0.2254,-0.2256,-0.2257,0,-0.1418,-0.143,-0.1528,-0.1594,-0.1705,-0.1743,-0.183,-0.1901,-0.1978,-0.2175,-0.2173,-0.2259,-0.2365,-0.2279,-0.2248,-0.2186,-0.2144,-0.2075,-0.2098,-0.2117,-0.2053,-0.2006,-0.1833,0,0,0,0,0,-0.1318,-0.1321,-0.1374,-0.1443,-0.1543,-0.159,-0.1748,-0.1845,-0.2021,-0.1973,-0.2068,-0.2059,-0.2035,-0.2084,-0.1974,-0.2144,-0.2141,-0.2008,-0.2071,-0.216,-0.2179,-0.2119,0,0,0,0,0,0,-0.126,-0.1303,-0.1315,-0.1295,-0.1305,-0.1386,-0.1478,-0.1606,-0.1592,-0.1781,-0.177,-0.1914,-0.1905,-0.2037,-0.1916,-0.1928,-0.1925,-0.2071,-0.2066,-0.2149,-0.2166,-0.2182,-0.2127,0,0,0,0,0]},{"header":{"parameterUnit":"m.s-1","parameterCategory":2,"la1":30.2991,"la2":30.254,"lo1":-89.0895,"lo2":-89.0444,"dy":0.0017,"dx":0.0017,"nx":28,"ny":28,"refTime":"2024-04-27T03:00:00:Z","depth":"4","parameterNumber":3,"parameterNumberName":"V-component_of_CURRENTS"},"data":[0,0,0,0,0,0,0,0,0,0,0,0,0,0,0,0,0,0,0,0,0,0,0,0,0,0,0,0,0,0,0,0,0,0,0,0,0,0,0,0,0,0,0,0,0,0,0,0,0,0,0,0,0,0,0,0,0,0,-0.0123,-0.0122,0,-0.0044,-0.0043,-0.0042,0.0016,0.0017,0.0017,0.0018,0.0139,0.0142,0.0144,0,0,0,0,0,0,0,0,0,0,0,0,0,-0.0198,-0.0197,-0.0123,-0.0122,-0.0121,-0.0044,-0.0043,-0.0042,0.0016,0.0017,0.0018,0.0018,0.0138,0.0141,0.0145,0,0,0,0,0,0,0,0,0,0,0,0,0,-0.0147,-0.0196,-0.0123,-0.0083,-0.0078,-0.0044,-0.0043,-0.0041,0.0016,0.0017,0.0018,0.0018,0.0137,0.0141,0.0145,0.0155,0,0,0.0158,0.0159,0,0,0,0,0,0,0,0,-0.015,-0.0144,-0.009,-0.0085,-0.008,-0.0023,-0.0025,0.0027,0.0016,-0.002,0.0018,0.0019,0.0088,0.0096,0.0109,0.0161,0.0166,0.0158,0.0161,0.0162,0.0163,0,0,0,0,0,0,0,-0.0153,-0.0147,-0.0091,-0.0089,-0.0083,-0.006,-0.0052,-0.0015,0.003,-0.0016,-0.0012,-0.0004,0.0091,0.0105,0.0112,0.0168,0.0158,0.0162,0.0164,0.0166,0.0253,0.0253,0,0,0,0,0,0,-0.0165,-0.015,-0.0094,-0.0089,-0.0114,-0.0059,-0.005,-0.0042,0.0029,0.004,-0.0004,-0.0001,0.0097,0.0108,0.0117,0.0142,0.0162,0.0166,0.0169,0.0253,0.0253,0.0253,0,0,0,0,0,0,-0.0167,-0.0161,-0.0097,-0.0118,-0.0108,-0.0059,-0.005,-0.0041,-0.0025,0.0038,0.005,0.0003,0.0098,0.0111,0.015,0.0147,0.0168,0.0172,0.0253,0.0253,0.0253,0.0186,0,0,0,0,0,0,-0.017,-0.0162,-0.0165,-0.0119,-0.0107,-0.0084,-0.005,-0.004,-0.0021,-0.0016,0.0048,0.0059,0.01,0.0143,0.0154,0.0153,0.0175,0.0253,0.0253,0.0253,0.0189,0.0184,0.0179,0,0,0,0,0,-0.0173,-0.0179,-0.0165,-0.0159,-0.0111,-0.0085,-0.0077,-0.0039,-0.0021,-0.0021,0.0026,0.0058,0.0149,0.0146,0.0159,0.0159,0.0253,0.0253,0.0253,0.0191,0.0185,0.018,0,0,0,0,0,0,-0.021,-0.0172,-0.0156,-0.015,-0.0124,-0.0075,-0.0073,-0.0045,-0.0009,-0.0004,0.0057,0.0072,0.0102,0.0139,0.0135,0.0183,0.0206,0.0208,0.0154,0.0149,0.0145,0.013,0.0178,0,0,0,0,0,-0.0221,-0.0219,-0.0177,-0.0174,-0.0164,-0.012,-0.0106,-0.0081,-0.0041,-0.0025,0.0021,0.0069,0.0109,0.0136,0.0172,0.0201,0.0245,0.0209,0.0204,0.02,0.0197,0.0266,0.0267,0.0251,0.0251,0.0251,0,0,-0.0235,-0.0215,-0.0213,-0.0183,-0.016,-0.0155,-0.011,-0.0095,-0.0086,-0.0017,0.0005,0.0051,0.0111,0.0141,0.0158,0.0174,0.0226,0.02,0.0196,0.0194,0.0266,0.0267,0.0269,0.0251,0.0251,0.0251,0,0,-0.027,-0.0246,-0.0259,-0.0242,-0.0214,-0.0185,-0.0184,-0.014,-0.0116,-0.0089,-0.0037,0.0009,0.0065,0.0114,0.0145,0.0139,0.0194,0.0146,0.012,0.0186,0.0188,0.0191,0.0238,0.0245,0.0151,0.0151,0.015,0,-0.0291,-0.0298,-0.0259,-0.0267,-0.0259,-0.0204,-0.0215,-0.0184,-0.0132,-0.011,-0.0093,0.0006,0.0054,0.0108,0.0104,0.0129,0.0168,0.0134,0.0181,0.0184,0.0187,0.0236,0.0244,0.0147,0.0148,0.0148,0.0148,0,-0.0334,-0.034,-0.0347,-0.0338,-0.0323,-0.0325,-0.0278,-0.0257,-0.0221,-0.0179,-0.0125,-0.0052,0.0012,0.0032,0.0066,0.0114,0.0133,0.0161,0.0192,0.0185,0.0236,0.0246,0.0143,0.0144,0.0145,0.0146,0,0,-0.0378,-0.038,-0.0383,-0.0396,-0.0362,-0.0358,-0.0339,-0.0302,-0.0285,-0.0223,-0.0189,-0.0113,-0.0061,-0.0022,0.0036,0.0093,0.0147,0.0129,0.0134,0.017,0.0282,0.0255,0.0264,0.0184,0.0186,0.0187,0.0303,0,-0.0426,-0.0472,-0.0447,-0.0479,-0.0496,-0.044,-0.0428,-0.0383,-0.0329,-0.0281,-0.0186,-0.0136,-0.0083,-0.0052,0.0015,0.0119,0.0173,0.0112,0.0288,0.0292,0.0266,0.0274,0.0192,0.0311,0.0314,0.0315,0.0317,0,-0.0476,-0.0501,-0.0552,-0.0556,-0.0556,-0.0561,-0.0525,-0.0506,-0.0415,-0.0368,-0.0283,-0.0205,-0.0103,-0.0066,0.0115,0.0074,0.0164,0.0241,0.0249,0.0254,0.0285,0.0325,0.0336,0.0335,0.0333,0.0332,0.0331,0,-0.0537,-0.0569,-0.0618,-0.0621,-0.0614,-0.0619,-0.0608,-0.0538,-0.0519,-0.0421,-0.0384,-0.0245,-0.0172,-0.0034,0.0136,0.0127,0.0329,0.0345,0.0405,0.0404,0.0423,0.042,0.0458,0.0458,0.0458,0.0458,0.0457,0,-0.0592,-0.0629,-0.0657,-0.0682,-0.0732,-0.0695,-0.0709,-0.0669,-0.0603,-0.0576,-0.0438,-0.0372,-0.0162,-0.0014,0.0127,0.0302,0.0334,0.0399,0.0435,0.039,0.0382,0.043,0.0425,0.0462,0.0461,0.046,0.046,0,-0.0643,-0.0664,-0.0722,-0.0748,-0.0765,-0.0799,-0.0798,-0.0795,-0.072,-0.0677,-0.0649,-0.0458,-0.0261,-0.0052,0.0187,0.0286,0.0456,0.0506,0.0435,0.0466,0.0483,0.0474,0.0576,0.0576,0.0576,0.0576,0.0576,0,-0.0672,-0.071,-0.0784,-0.0833,-0.0852,-0.0894,-0.0917,-0.0867,-0.0849,-0.0724,-0.0701,-0.0507,-0.0363,-0.0033,0.0178,0.0449,0.0477,0.0554,0.0517,0.0472,0.0497,0.0487,0.0478,0.0577,0.0577,0.0577,0.0577,0,-0.0718,-0.0749,-0.0798,-0.0907,-0.0963,-0.101,-0.103,-0.1024,-0.0946,-0.0888,-0.0728,-0.0538,-0.0314,-0.0047,0.0169,0.0359,0.05,0.0555,0.0555,0.0522,0.0473,0.0496,0.0487,0.0577,0.0577,0.0577,0.0577,0,-0.0745,-0.0799,-0.0877,-0.0964,-0.1047,-0.1093,-0.1094,-0.105,-0.1017,-0.0868,-0.0817,-0.0553,-0.039,-0.0092,0.0109,0.0295,0.0326,0.0362,0.0374,0.0376,0.0279,0.0186,0.0232,0,0,0,0,0,-0.0765,-0.0834,-0.0928,-0.1019,-0.1098,-0.114,-0.1154,-0.1129,-0.1057,-0.0963,-0.0885,-0.0671,-0.0341,-0.0176,0.0003,0.0086,0.0341,0.0297,0.0382,0.0578,0.0578,0.0496,0,0,0,0,0,0,-0.0784,-0.0878,-0.0932,-0.1044,-0.1109,-0.1181,-0.119,-0.1142,-0.1063,-0.0967,-0.078,-0.0662,-0.0331,-0.045,-0.0005,0.0056,0.0125,0.0465,0.0468,0.0578,0.0578,0.0578,0.0493,0,0,0,0,0]}]]